Location: Unspecified
(0.0000°N, 0.0000°E)
Time: 12:04:37
(UTC+00:00)

Hubble Space Telescope - Pass Details

Date: 12 February 2018
Orbit: 537 x 541 km, 28.5° (Epoch: 21 May)

Event Time Altitude Azimuth Distance (km) Brightness Sun altitude
Exits shadow 05:33:47 - 250° (WSW) 1,914 3.1 -9.8°
Reaches altitude 10° 05:34:07 10° 250° (WSW) 1,786 2.9 -9.7°
Maximum altitude 05:38:11 57° 330° (NNW) 629 0.9 -8.8°
Drops below altitude 10° 05:42:15 10° 49° (NE) 1,783 3.9 -7.8°
Sets 05:44:32 0° 53° (NE) 2,673 5.0 -7.2°
